Weather History for KCHA - October, 2014

Change the Weather History Date:

Saturday, October 4, 2014

  Actual Average Record
Temperature  
Mean Temperature 55 °F 66 °F  
Max Temperature 65 °F 77 °F 92 °F (1954)
Min Temperature 45 °F 54 °F 33 °F (1974)
Degree Days  
Heating Degree Days 10 2  
Month to date heating degree days 10 8  
Since 1 July heating degree days 10 23  
Cooling Degree Days 0 3  
Month to date cooling degree days 23 13  
Year to date cooling degree days 1849 1702  
Growing Degree Days 4 (Base 50)    
Moisture  
Dew Point 35 °F    
Average Humidity 46    
Maximum Humidity 66    
Minimum Humidity 25    
Precipitation  
Precipitation 0.00 in 0.12 in 2.05 in (1972)
Month to date precipitation 0.52 0.47  
Year to date precipitation 31.65 39.77  
Snow  
Snow 0.00 in 0.00 in - ()
Month to date snowfall 0.0 0.0  
Since 1 July snowfall 0.0 0.0  
Since 1 September snowfall 0.0 0.0  
Snow Depth 0.00 in    
Sea Level Pressure  
Sea Level Pressure 29.97 in    
Wind  
Wind Speed 9 mph (NW)    
Max Wind Speed 23 mph    
Max Gust Speed 30 mph    
Visibility 10 miles    
Events      
T = Trace of Precipitation, MM = Missing Value Source: NWS Daily Summary

Daily Weather History Graph

Daily Weather History Graph

Search for Another Location

Airport or City:

Trip Planner

Search our weather history database for the weather conditions in past years. The results will help you decide how hot, cold, wet, or windy it might be!

Date:

Astronomy

Oct. 04, 2014 Rise Set
Actual Time 7:37 AM EDT 7:20 PM EDT
Civil Twilight 7:12 AM EDT 7:45 PM EDT
Nautical Twilight 6:43 AM EDT 8:15 PM EDT
Astronomical Twilight 6:13 AM EDT 8:44 PM EDT
Moon 4:48 PM EDT (10/4) 3:14 AM EDT (10/4)
Length of Visible Light 12h 33m
Length of Day
11h 42m
Waxing Gibbous, 81% of the Moon is Illuminated
Oct 4
Waxing Gibbous
Oct 8
Full
Oct 15
Last Quarter
Oct 23
New
Oct 30
First Quarter

Hourly Weather History & Observations

Time (EDT) Temp. Dew Point Humidity Pressure Visibility Wind Dir Wind Speed Gust Speed Precip Events Conditions
12:53 AM 64.0 °F 52.0 °F 65% 29.92 in 10.0 mi WNW 10.4 mph - N/A   Mostly Cloudy
1:53 AM 62.6 °F 48.2 °F 59% 29.95 in 10.0 mi NNW 12.7 mph - N/A   Overcast
2:36 AM 59.0 °F 46.9 °F 64% 29.97 in 10.0 mi NW 20.7 mph - N/A   Mostly Cloudy
2:50 AM 57.2 °F 44.6 °F 63% 29.98 in 10.0 mi NNW 21.9 mph - N/A   Mostly Cloudy
2:53 AM 55.9 °F 43.0 °F 62% 29.97 in 10.0 mi NNW 18.4 mph - N/A   Mostly Cloudy
3:53 AM 53.1 °F 39.0 °F 59% 29.99 in 10.0 mi NNW 18.4 mph - N/A   Clear
4:53 AM 50.0 °F 33.1 °F 52% 30.01 in 10.0 mi NNW 17.3 mph 23.0 mph N/A   Clear
5:53 AM 48.0 °F 34.0 °F 58% 30.01 in 10.0 mi NW 15.0 mph - N/A   Scattered Clouds
6:53 AM 46.9 °F 32.0 °F 56% 30.01 in 10.0 mi NNW 8.1 mph - N/A   Scattered Clouds
7:53 AM 46.0 °F 33.1 °F 61% 30.02 in 10.0 mi Calm Calm - N/A   Scattered Clouds
8:53 AM 48.9 °F 33.1 °F 54% 30.03 in 10.0 mi WNW 5.8 mph - N/A   Scattered Clouds
9:53 AM 51.1 °F 30.9 °F 46% 30.03 in 10.0 mi Calm Calm - N/A   Scattered Clouds
10:53 AM 54.0 °F 30.9 °F 41% 30.01 in 10.0 mi NNE 4.6 mph - N/A   Scattered Clouds
11:53 AM 57.9 °F 30.0 °F 35% 30.00 in 10.0 mi West 13.8 mph 25.3 mph N/A   Scattered Clouds
12:53 PM 60.1 °F 28.9 °F 31% 29.97 in 10.0 mi WNW 12.7 mph 20.7 mph N/A   Mostly Cloudy
1:53 PM 60.1 °F 30.0 °F 32% 29.95 in 10.0 mi WNW 12.7 mph 23.0 mph N/A   Mostly Cloudy
2:53 PM 62.1 °F 30.9 °F 31% 29.93 in 10.0 mi West 17.3 mph 23.0 mph N/A   Mostly Cloudy
3:53 PM 62.1 °F 30.0 °F 30% 29.91 in 10.0 mi West 12.7 mph 21.9 mph N/A   Mostly Cloudy
4:53 PM 64.0 °F 30.0 °F 28% 29.91 in 10.0 mi WNW 11.5 mph 17.3 mph N/A   Mostly Cloudy
5:53 PM 63.0 °F 27.0 °F 26% 29.92 in 10.0 mi WNW 9.2 mph - N/A   Mostly Cloudy
6:53 PM 61.0 °F 26.1 °F 26% 29.93 in 10.0 mi WNW 9.2 mph 17.3 mph N/A   Scattered Clouds
7:53 PM 57.2 °F 30.2 °F 36% 29.95 in 10.0 mi NW 4.6 mph - N/A   Scattered Clouds
8:53 PM 54.0 °F 35.1 °F 49% 29.96 in 10.0 mi NNW 3.5 mph - N/A   Scattered Clouds
9:53 PM 50.0 °F 37.0 °F 61% 29.97 in 10.0 mi NW 4.6 mph - N/A   Scattered Clouds
10:53 PM 50.0 °F 37.0 °F 61% 29.99 in 10.0 mi Calm Calm - N/A   Partly Cloudy
11:53 PM 48.0 °F 37.0 °F 66% 29.99 in 10.0 mi WNW 3.5 mph - N/A   Partly Cloudy